Location: ?????????
(38.5999°N, 22.7695°E)
Time: 10:31:58
(UTC+00:00)

IDEFIX/ARIANE 42P - Pass Details

Date: 23 May 2024
Orbit: 783 x 799 km, 98.5° (Epoch: 23 June)

Event Time Altitude Azimuth Distance (km) Brightness Sun altitude
Rises 01:19:58 0° 358° (N) 3,313 6.5 -18.1°
Reaches altitude 10° 01:22:45 10° 344° (NNW) 2,380 5.4 -17.7°
Maximum altitude 01:26:44 22° 295° (WNW) 1,670 4.1 -17.1°
Enters shadow 01:28:35 19° 266° (W) 1,845 4.0 -16.9°
